Commit Graph

114 Commits

Author SHA1 Message Date
83b259af2d feat: improve async feedback and export workflow 2026-08-11 18:45:39 +08:00
ff4ba1148b feat: reveal encrypted config secrets on demand 2026-08-11 18:20:22 +08:00
74213a363f fix: separate voice credentials and refresh feature toggle 2026-08-11 17:46:56 +08:00
fd2da26d10 feat: add admin permissions voice input analytics and feedback 2026-08-11 17:17:59 +08:00
cd3c875106 feat: isolate external application conversations 2026-08-03 18:57:19 +08:00
26109648af feat: 增加可信应用免登录接入 2026-08-03 18:28:40 +08:00
1954f461af feat: 增加AI回复手动重试 2026-08-03 17:55:02 +08:00
8e6da99dcb feat: 提升并发容量默认配置 2026-08-03 17:42:17 +08:00
8ee4d65b7b feat: 增加内容生成配置管理 2026-08-03 17:23:42 +08:00
3f8ff30bbc fix: 完善个人中心卡片管理 2026-08-03 16:49:31 +08:00
b2b56f43bb feat: 完成权益到期与续期闭环 2026-08-03 14:32:38 +08:00
20ed4875b8 feat: 新增用户端个人中心 2026-08-03 12:38:00 +08:00
7747334ea4 feat: 将成长档案调整为近期实修回顾 2026-08-03 12:25:51 +08:00
d2e08ab36c feat: 异步沉淀主题摘要和成长档案 2026-08-03 11:35:58 +08:00
b6aff78aac feat: align agent preview with learner topics 2026-07-31 18:21:36 +08:00
ab2c945f0b feat: make chat model routing configurable 2026-07-31 17:57:26 +08:00
85a6da5949 feat: route fixed information chats by model 2026-07-31 17:42:25 +08:00
da313f88ed feat: route background ai workloads by model 2026-07-31 17:25:16 +08:00
0008903e8d feat: schedule periodic reports asynchronously 2026-07-31 17:11:21 +08:00
a589a25bdc feat: persist cleaned question insights 2026-07-31 16:50:11 +08:00
6c03faf10c feat: enrich question insights classification 2026-07-31 16:40:13 +08:00
99e23b33ec feat: add periodic practice reports 2026-07-31 16:37:25 +08:00
88ed92d78c feat: add admin user detail insights 2026-07-31 16:30:39 +08:00
a84650bb9e feat: add ai cost tracking foundation 2026-07-31 16:24:35 +08:00
ec9f8a015a feat: soften quota messaging 2026-07-31 16:10:35 +08:00
4e872febd5 feat: expose knowledge type priority traces 2026-07-31 16:09:27 +08:00
429636f3e8 feat: add class share drafts 2026-07-31 16:07:18 +08:00
d8fde93b69 feat: add teacher help cards 2026-07-31 15:53:47 +08:00
79094d0832 feat: align agent preview user context 2026-07-31 15:48:40 +08:00
3e60a6da42 feat: add topic summaries and growth profiles 2026-07-31 15:34:03 +08:00
884dc765ad feat: add entitlement plans and topic sessions 2026-07-31 15:22:11 +08:00
ad2161497f feat: add question insight analytics 2026-07-31 11:39:59 +08:00
e426f12e22 fix: highlight full knowledge search terms 2026-07-30 17:14:51 +08:00
918ef5fa79 fix: speed up chat detail pagination 2026-07-30 15:21:26 +08:00
8e2dc1d781 fix: paginate chat detail messages 2026-07-30 15:09:05 +08:00
162658384f fix: deduplicate knowledge content search results 2026-07-30 14:45:20 +08:00
77a899e24c fix: align agent no-hit handling 2026-07-30 14:36:09 +08:00
d1f573108e feat: add knowledge content search 2026-07-30 11:02:04 +08:00
c2655361b5 feat: add agent response depth control 2026-07-20 11:36:18 +08:00
537978082a fix: preserve agent debug conversation context 2026-07-17 16:06:43 +08:00
cadf44e0b8 fix: allow direct knowledge deletion 2026-07-17 15:34:23 +08:00
821cb26930 feat: enforce knowledge type source hierarchy 2026-07-17 15:14:18 +08:00
d647a3d44b feat: apply knowledge type retrieval priority 2026-07-17 15:12:34 +08:00
c7bafda135 feat(agent): add debug output switches 2026-07-17 14:19:23 +08:00
a879dc2ff1 feat(agent): control reasoning visibility 2026-07-17 14:05:54 +08:00
bfaf2ebf67 feat(agent): stream admin debug preview 2026-07-17 13:47:05 +08:00
13fed0467a feat(chat): add configurable streaming output 2026-07-17 13:34:27 +08:00
f7076569a7 feat(knowledge): add batch synchronization 2026-07-17 13:20:41 +08:00
dde28aba83 fix(rag): route exercise titles to knowledge base 2026-07-17 12:31:56 +08:00
6f07c70f1f fix(rag): keep practice headings with details 2026-07-17 12:16:30 +08:00